Time,TemperatureF,DewpointF,PressureIn,WindDirection,WindDirectionDegrees,WindSpeedMPH,WindSpeedGustMPH,Humidity,HourlyPrecipIn,Conditions,Clouds,dailyrainin,SoftwareType,DateUTC
2013-03-22 00:02:00,37.0,34.0,30.36,NNW,341,12.0,18.0,89,0.01,,,0.08,,2013-03-22 07:02:00,
2013-03-22 00:11:00,37.0,34.0,30.36,NNW,341,12.0,18.0,89,0.01,,,0.08,,2013-03-22 07:11:00,
2013-03-22 00:21:00,37.0,34.0,30.36,WNW,295,10.0,18.0,89,0.01,,,0.08,,2013-03-22 07:21:00,
2013-03-22 00:32:00,37.0,34.0,30.35,NNW,345,4.0,7.0,88,0.00,,,0.08,,2013-03-22 07:32:00,
2013-03-22 00:41:00,37.0,34.0,30.35,NNW,345,4.0,7.0,88,0.00,,,0.08,,2013-03-22 07:41:00,
2013-03-22 00:52:00,36.0,33.0,30.35,North,0,0.0,7.0,88,0.00,,,0.08,,2013-03-22 07:52:00,
2013-03-22 01:02:00,36.0,33.0,30.36,North,4,7.0,21.0,87,0.00,,,0.08,,2013-03-22 08:02:00,
2013-03-22 01:11:00,36.0,33.0,30.36,North,4,7.0,21.0,87,0.00,,,0.08,,2013-03-22 08:11:00,
2013-03-22 01:21:00,36.0,33.0,30.35,NNE,30,3.0,7.0,88,0.00,,,0.08,,2013-03-22 08:21:00,
2013-03-22 01:32:00,36.0,33.0,30.35,NW,317,8.0,18.0,88,0.00,,,0.08,,2013-03-22 08:32:00,
2013-03-22 01:41:00,36.0,33.0,30.35,NW,317,8.0,18.0,88,0.00,,,0.08,,2013-03-22 08:41:00,
2013-03-22 01:51:00,36.0,32.0,30.35,NW,319,9.0,18.0,85,0.00,,,0.08,,2013-03-22 08:51:00,
2013-03-22 02:02:00,36.0,32.0,30.35,NW,323,11.0,15.0,85,0.00,,,0.08,,2013-03-22 09:02:00,
2013-03-22 02:11:00,36.0,32.0,30.35,NW,323,11.0,15.0,85,0.00,,,0.08,,2013-03-22 09:11:00,
2013-03-22 02:22:00,37.0,33.0,30.35,WNW,303,10.0,18.0,85,0.00,,,0.08,,2013-03-22 09:22:00,
2013-03-22 02:32:00,37.0,34.0,30.36,North,357,5.0,9.0,87,0.01,,,0.08,,2013-03-22 09:32:00,
2013-03-22 02:42:00,37.0,34.0,30.36,North,357,5.0,9.0,87,0.01,,,0.08,,2013-03-22 09:42:00,
2013-03-22 02:53:00,36.0,33.0,30.36,North,1,1.0,9.0,88,0.01,,,0.08,,2013-03-22 09:53:00,
2013-03-22 03:03:00,36.0,33.0,30.36,ESE,110,1.0,7.0,89,0.01,,,0.08,,2013-03-22 10:03:00,
2013-03-22 03:11:00,36.0,33.0,30.36,ESE,110,1.0,7.0,89,0.01,,,0.08,,2013-03-22 10:11:00,
2013-03-22 03:22:00,35.0,32.0,30.36,SE,126,0.0,6.0,90,0.01,,,0.08,,2013-03-22 10:22:00,
2013-03-22 03:32:00,34.0,32.0,30.36,SE,133,2.0,5.0,92,0.00,,,0.09,,2013-03-22 10:32:00,
2013-03-22 03:42:00,34.0,32.0,30.36,SE,133,2.0,5.0,92,0.00,,,0.09,,2013-03-22 10:42:00,
2013-03-22 03:52:00,34.0,32.0,30.36,ENE,70,0.0,6.0,92,0.00,,,0.09,,2013-03-22 10:52:00,
2013-03-22 04:02:00,34.0,32.0,30.36,NNE,23,8.0,16.0,91,0.00,,,0.09,,2013-03-22 11:02:00,
2013-03-22 04:11:00,34.0,32.0,30.36,NNE,23,8.0,16.0,91,0.00,,,0.09,,2013-03-22 11:11:00,
2013-03-22 04:22:00,34.0,31.0,30.36,NW,317,5.0,6.0,90,0.01,,,0.09,,2013-03-22 11:22:00,
2013-03-22 04:32:00,34.0,32.0,30.36,ESE,109,0.0,5.0,91,0.01,,,0.10,,2013-03-22 11:32:00,
2013-03-22 04:41:00,34.0,32.0,30.36,ESE,109,0.0,5.0,91,0.01,,,0.10,,2013-03-22 11:41:00,
2013-03-22 04:52:00,34.0,32.0,30.36,ESE,114,4.0,5.0,92,0.01,,,0.10,,2013-03-22 11:52:00,
2013-03-22 05:02:00,34.0,32.0,30.36,SSE,152,1.0,6.0,92,0.01,,,0.10,,2013-03-22 12:02:00,
2013-03-22 05:11:00,34.0,32.0,30.37,North,5,13.0,26.0,93,0.00,,,0.10,,2013-03-22 12:11:00,
2013-03-22 05:21:00,34.0,32.0,30.37,North,5,13.0,26.0,93,0.00,,,0.10,,2013-03-22 12:21:00,
2013-03-22 05:32:00,33.0,31.0,30.37,ESE,107,5.0,6.0,92,0.04,,,0.13,,2013-03-22 12:32:00,
2013-03-22 05:41:00,33.0,31.0,30.37,ESE,107,5.0,6.0,92,0.04,,,0.13,,2013-03-22 12:41:00,
2013-03-22 05:51:00,33.0,31.0,30.37,ESE,121,3.0,6.0,93,0.04,,,0.13,,2013-03-22 12:51:00,
2013-03-22 06:02:00,33.0,31.0,30.36,SE,130,2.0,4.0,93,0.04,,,0.13,,2013-03-22 13:02:00,
2013-03-22 06:11:00,33.0,31.0,30.36,SE,130,2.0,4.0,93,0.04,,,0.13,,2013-03-22 13:11:00,
2013-03-22 06:21:00,32.0,30.0,30.37,SSE,159,0.0,4.0,94,0.04,,,0.13,,2013-03-22 13:21:00,
2013-03-22 06:32:00,31.0,29.0,30.37,ESE,107,0.0,6.0,94,0.00,,,0.14,,2013-03-22 13:32:00,
2013-03-22 06:52:00,32.0,31.0,30.37,ESE,123,5.0,6.0,95,0.01,,,0.14,,2013-03-22 13:52:00,
2013-03-22 07:02:00,32.0,31.0,30.37,NW,308,5.0,11.0,95,0.01,,,0.14,,2013-03-22 14:02:00,
2013-03-22 07:11:00,32.0,31.0,30.37,NW,308,5.0,11.0,95,0.01,,,0.14,,2013-03-22 14:11:00,
2013-03-22 07:21:00,33.0,32.0,30.37,North,1,4.0,19.0,96,0.01,,,0.14,,2013-03-22 14:21:00,
2013-03-22 07:32:00,32.0,30.0,30.37,ESE,123,4.0,6.0,94,0.02,,,0.16,,2013-03-22 14:32:00,
2013-03-22 07:41:00,32.0,30.0,30.37,ESE,123,4.0,6.0,94,0.02,,,0.16,,2013-03-22 14:41:00,
2013-03-22 07:51:00,32.0,30.0,30.37,SE,142,3.0,7.0,94,0.01,,,0.16,,2013-03-22 14:51:00,
2013-03-22 08:02:00,33.0,32.0,30.37,SE,134,4.0,7.0,95,0.01,,,0.16,,2013-03-22 15:02:00,
2013-03-22 08:11:00,33.0,32.0,30.37,SE,134,4.0,7.0,95,0.01,,,0.16,,2013-03-22 15:11:00,
2013-03-22 08:21:00,33.0,32.0,30.39,NNE,25,0.0,8.0,96,0.02,,,0.16,,2013-03-22 15:21:00,
2013-03-22 08:32:00,34.0,33.0,30.39,ESE,123,3.0,5.0,95,0.05,,,0.18,,2013-03-22 15:32:00,
2013-03-22 08:42:00,34.0,33.0,30.39,ESE,123,3.0,5.0,95,0.05,,,0.18,,2013-03-22 15:42:00,
2013-03-22 08:52:00,34.0,33.0,30.39,SE,134,3.0,5.0,95,0.06,,,0.18,,2013-03-22 15:52:00,
2013-03-22 09:02:00,35.0,34.0,30.39,ESE,109,1.0,4.0,96,0.07,,,0.18,,2013-03-22 16:02:00,
2013-03-22 09:12:00,36.0,35.0,30.39,East,89,0.0,6.0,96,0.07,,,0.18,,2013-03-22 16:12:00,
2013-03-22 09:22:00,36.0,35.0,30.39,East,89,0.0,6.0,96,0.07,,,0.18,,2013-03-22 16:22:00,
2013-03-22 09:32:00,38.0,36.0,30.39,East,98,0.0,6.0,94,0.03,,,0.21,,2013-03-22 16:32:00,
2013-03-22 09:42:00,38.0,36.0,30.39,North,0,0.0,0.0,94,0.02,,,0.21,,2013-03-22 16:42:00,
2013-03-22 09:52:00,38.0,36.0,30.39,North,0,0.0,0.0,94,0.02,,,0.21,,2013-03-22 16:52:00,
2013-03-22 10:02:00,37.0,35.0,30.40,North,0,0.0,4.0,93,0.01,,,0.21,,2013-03-22 17:02:00,
2013-03-22 10:12:00,37.0,35.0,30.40,NNW,330,0.0,12.0,93,0.01,,,0.21,,2013-03-22 17:12:00,
2013-03-22 10:22:00,37.0,35.0,30.40,NNW,330,0.0,12.0,93,0.01,,,0.21,,2013-03-22 17:22:00,
2013-03-22 10:32:00,39.0,37.0,30.40,SE,126,0.0,7.0,93,0.01,,,0.22,,2013-03-22 17:32:00,
2013-03-22 10:41:00,39.0,37.0,30.40,SE,126,0.0,7.0,93,0.01,,,0.22,,2013-03-22 17:41:00,
2013-03-22 10:52:00,41.0,39.0,30.40,SW,218,1.0,7.0,93,0.01,,,0.22,,2013-03-22 17:52:00,
2013-03-22 11:02:00,43.0,39.0,30.39,North,0,0.0,6.0,87,0.01,,,0.22,,2013-03-22 18:02:00,
2013-03-22 11:11:00,43.0,39.0,30.39,North,0,0.0,6.0,87,0.01,,,0.22,,2013-03-22 18:11:00,
2013-03-22 11:21:00,43.0,39.0,30.40,North,0,0.0,0.0,85,0.00,,,0.22,,2013-03-22 18:21:00,
2013-03-22 11:32:00,44.0,39.0,30.40,WNW,295,5.0,8.0,83,0.00,,,0.22,,2013-03-22 18:32:00,
2013-03-22 11:42:00,44.0,39.0,30.40,WNW,295,5.0,8.0,83,0.00,,,0.22,,2013-03-22 18:42:00,
2013-03-22 11:52:00,42.0,38.0,30.40,WNW,282,1.0,6.0,85,0.00,,,0.22,,2013-03-22 18:52:00,
2013-03-22 12:02:00,43.0,39.0,30.39,WNW,285,3.0,6.0,85,0.00,,,0.22,,2013-03-22 19:02:00,
2013-03-22 12:12:00,45.0,40.0,30.40,NNW,343,1.0,5.0,81,0.00,,,0.22,,2013-03-22 19:12:00,
2013-03-22 12:21:00,45.0,40.0,30.40,NNW,343,1.0,5.0,81,0.00,,,0.22,,2013-03-22 19:21:00,
2013-03-22 12:32:00,48.0,41.0,30.40,WNW,299,5.0,6.0,77,0.00,,,0.20,,2013-03-22 19:32:00,
2013-03-22 12:42:00,48.0,41.0,30.40,WNW,299,5.0,6.0,77,0.00,,,0.20,,2013-03-22 19:42:00,
2013-03-22 12:51:00,47.0,39.0,30.40,WNW,301,6.0,9.0,75,0.00,,,0.20,,2013-03-22 19:51:00,
2013-03-22 13:01:00,42.0,37.0,30.41,NNE,12,8.0,20.0,81,0.00,,,0.20,,2013-03-22 20:01:00,
2013-03-22 13:11:00,42.0,38.0,30.41,NW,319,1.0,8.0,85,0.00,,,0.20,,2013-03-22 20:11:00,
2013-03-22 13:22:00,42.0,38.0,30.41,NW,319,1.0,8.0,85,0.00,,,0.20,,2013-03-22 20:22:00,
2013-03-22 13:32:00,43.0,39.0,30.40,WNW,296,1.0,4.0,86,0.00,,,0.20,,2013-03-22 20:32:00,
2013-03-22 13:42:00,43.0,39.0,30.40,WNW,296,1.0,4.0,86,0.00,,,0.20,,2013-03-22 20:42:00,
2013-03-22 13:51:00,44.0,39.0,30.40,WNW,291,0.0,6.0,84,0.00,,,0.20,,2013-03-22 20:51:00,
2013-03-22 14:02:00,45.0,40.0,30.40,WNW,287,2.0,8.0,81,0.00,,,0.20,,2013-03-22 21:02:00,
2013-03-22 14:11:00,45.0,39.0,30.40,NW,320,0.0,5.0,78,0.00,,,0.20,,2013-03-22 21:11:00,
2013-03-22 14:21:00,45.0,39.0,30.40,NW,320,0.0,5.0,78,0.00,,,0.20,,2013-03-22 21:21:00,
2013-03-22 14:32:00,45.0,38.0,30.40,WNW,289,0.0,5.0,77,0.00,,,0.20,,2013-03-22 21:32:00,
2013-03-22 14:42:00,45.0,38.0,30.40,WNW,289,0.0,5.0,77,0.00,,,0.20,,2013-03-22 21:42:00,
2013-03-22 14:52:00,44.0,37.0,30.40,WNW,292,0.0,6.0,77,0.00,,,0.20,,2013-03-22 21:52:00,
2013-03-22 15:02:00,44.0,37.0,30.39,West,281,0.0,6.0,77,0.00,,,0.20,,2013-03-22 22:02:00,
2013-03-22 15:12:00,44.0,37.0,30.39,West,281,0.0,6.0,77,0.00,,,0.20,,2013-03-22 22:12:00,
2013-03-22 15:22:00,44.0,38.0,30.39,WNW,285,0.0,6.0,79,0.00,,,0.20,,2013-03-22 22:22:00,
2013-03-22 15:32:00,44.0,38.0,30.40,NW,310,2.0,5.0,78,0.00,,,0.19,,2013-03-22 22:32:00,
2013-03-22 15:41:00,44.0,38.0,30.40,NW,310,2.0,5.0,78,0.00,,,0.19,,2013-03-22 22:41:00,
2013-03-22 15:52:00,42.0,36.0,30.39,NNW,329,0.0,14.0,79,0.01,,,0.19,,2013-03-22 22:52:00,
2013-03-22 16:02:00,42.0,37.0,30.39,North,0,0.0,0.0,82,0.02,,,0.19,,2013-03-22 23:02:00,
2013-03-22 16:11:00,42.0,37.0,30.39,North,0,0.0,0.0,82,0.02,,,0.19,,2013-03-22 23:11:00,
2013-03-22 16:21:00,42.0,37.0,30.39,North,0,0.0,0.0,83,0.02,,,0.19,,2013-03-22 23:21:00,
2013-03-22 16:32:00,42.0,37.0,30.39,North,0,0.0,0.0,81,0.02,,,0.21,,2013-03-22 23:32:00,
2013-03-22 16:41:00,42.0,37.0,30.39,North,0,0.0,0.0,81,0.02,,,0.21,,2013-03-22 23:41:00,
2013-03-22 16:52:00,43.0,37.0,30.39,North,0,0.0,0.0,80,0.01,,,0.21,,2013-03-22 23:52:00,
2013-03-22 17:02:00,44.0,37.0,30.39,NW,316,5.0,8.0,77,0.00,,,0.21,,2013-03-23 00:02:00,
2013-03-22 17:11:00,44.0,37.0,30.39,NW,316,5.0,8.0,77,0.00,,,0.21,,2013-03-23 00:11:00,
2013-03-22 17:22:00,44.0,37.0,30.39,WNW,296,0.0,9.0,77,0.00,,,0.21,,2013-03-23 00:22:00,
2013-03-22 17:32:00,42.0,37.0,30.40,NNW,331,9.0,23.0,81,0.01,,,0.21,,2013-03-23 00:32:00,
2013-03-22 17:41:00,41.0,37.0,30.40,NNE,16,8.0,10.0,86,0.02,,,0.21,,2013-03-23 00:41:00,
2013-03-22 17:51:00,41.0,37.0,30.40,NNE,16,8.0,10.0,86,0.02,,,0.21,,2013-03-23 00:51:00,
2013-03-22 18:03:00,42.0,37.0,30.40,NW,320,5.0,10.0,83,0.02,,,0.21,,2013-03-23 01:03:00,
2013-03-22 18:11:00,42.0,37.0,30.40,NW,320,5.0,10.0,83,0.02,,,0.21,,2013-03-23 01:11:00,
2013-03-22 18:22:00,42.0,37.0,30.39,North,2,0.0,10.0,82,0.02,,,0.21,,2013-03-23 01:22:00,
2013-03-22 18:31:00,42.0,37.0,30.39,WNW,298,3.0,7.0,83,0.01,,,0.23,,2013-03-23 01:31:00,
2013-03-22 18:42:00,42.0,37.0,30.39,WNW,298,3.0,7.0,83,0.01,,,0.23,,2013-03-23 01:42:00,
2013-03-22 18:52:00,41.0,36.0,30.39,NNW,334,2.0,8.0,83,0.00,,,0.23,,2013-03-23 01:52:00,
2013-03-22 19:02:00,41.0,37.0,30.39,NNW,341,0.0,7.0,84,0.00,,,0.23,,2013-03-23 02:02:00,
2013-03-22 19:11:00,41.0,37.0,30.39,NNW,341,0.0,7.0,84,0.00,,,0.23,,2013-03-23 02:11:00,
2013-03-22 19:22:00,41.0,37.0,30.38,North,0,0.0,0.0,84,0.00,,,0.23,,2013-03-23 02:22:00,
2013-03-22 19:31:00,40.0,36.0,30.39,North,0,0.0,5.0,85,0.00,,,0.23,,2013-03-23 02:31:00,
2013-03-22 19:42:00,40.0,36.0,30.39,North,0,0.0,5.0,85,0.00,,,0.23,,2013-03-23 02:42:00,
2013-03-22 19:51:00,39.0,35.0,30.38,North,0,0.0,0.0,86,0.00,,,0.23,,2013-03-23 02:51:00,
2013-03-22 20:02:00,38.0,35.0,30.38,North,0,0.0,0.0,88,0.00,,,0.23,,2013-03-23 03:02:00,
2013-03-22 20:11:00,38.0,35.0,30.38,North,0,0.0,0.0,88,0.00,,,0.23,,2013-03-23 03:11:00,
2013-03-22 20:22:00,37.0,34.0,30.38,North,0,0.0,0.0,88,0.00,,,0.23,,2013-03-23 03:22:00,
2013-03-22 20:32:00,37.0,34.0,30.39,North,0,0.0,0.0,90,0.00,,,0.23,,2013-03-23 03:32:00,
2013-03-22 20:42:00,37.0,34.0,30.39,North,0,0.0,0.0,90,0.00,,,0.23,,2013-03-23 03:42:00,
2013-03-22 20:52:00,37.0,35.0,30.39,North,0,0.0,0.0,91,0.00,,,0.23,,2013-03-23 03:52:00,
2013-03-22 21:02:00,36.0,34.0,30.40,North,0,0.0,5.0,92,0.00,,,0.23,,2013-03-23 04:02:00,
2013-03-22 21:12:00,36.0,34.0,30.40,North,0,0.0,5.0,92,0.00,,,0.23,,2013-03-23 04:12:00,
2013-03-22 21:22:00,36.0,34.0,30.40,North,0,0.0,0.0,92,0.00,,,0.23,,2013-03-23 04:22:00,
2013-03-22 21:32:00,36.0,34.0,30.40,ESE,117,4.0,6.0,92,0.00,,,0.22,,2013-03-23 04:32:00,
2013-03-22 21:42:00,36.0,34.0,30.40,ESE,117,4.0,6.0,92,0.00,,,0.22,,2013-03-23 04:42:00,
2013-03-22 21:52:00,35.0,33.0,30.40,North,0,0.0,0.0,92,0.00,,,0.22,,2013-03-23 04:52:00,
2013-03-22 22:02:00,35.0,33.0,30.40,ESE,113,0.0,6.0,93,0.00,,,0.22,,2013-03-23 05:02:00,
2013-03-22 22:11:00,35.0,33.0,30.40,ESE,113,0.0,6.0,93,0.00,,,0.22,,2013-03-23 05:11:00,
2013-03-22 22:21:00,35.0,33.0,30.41,East,92,0.0,6.0,93,0.00,,,0.22,,2013-03-23 05:21:00,
2013-03-22 22:32:00,35.0,33.0,30.41,SE,144,3.0,7.0,93,0.00,,,0.22,,2013-03-23 05:32:00,
2013-03-22 22:42:00,35.0,33.0,30.41,SE,144,3.0,7.0,93,0.00,,,0.22,,2013-03-23 05:42:00,
2013-03-22 22:52:00,34.0,32.0,30.41,North,0,0.0,0.0,93,0.00,,,0.22,,2013-03-23 05:52:00,
2013-03-22 23:02:00,34.0,32.0,30.42,East,98,3.0,5.0,94,0.00,,,0.22,,2013-03-23 06:02:00,
2013-03-22 23:11:00,34.0,32.0,30.42,East,98,3.0,5.0,94,0.00,,,0.22,,2013-03-23 06:11:00,
2013-03-22 23:21:00,34.0,32.0,30.42,ENE,68,0.0,4.0,94,0.00,,,0.22,,2013-03-23 06:21:00,
2013-03-22 23:32:00,34.0,32.0,30.41,SE,128,1.0,6.0,94,0.00,,,0.22,,2013-03-23 06:32:00,
2013-03-22 23:41:00,34.0,32.0,30.41,SE,128,1.0,6.0,94,0.00,,,0.22,,2013-03-23 06:41:00,
2013-03-22 23:51:00,34.0,32.0,30.41,ESE,114,1.0,5.0,94,0.00,,,0.22,,2013-03-23 06:51:00,